Regional Weather Roundup
Issued by NWS Cleveland, OH

Home | Current Version | Previous Version | Text Only | Print | Product List | Glossary On
Versions: 1 2 3 4 5 6 7 8 9 10 11 12 13 14 15 16 17 18 19 20 21 22 23 24 25 26 27 28 29 30 31 32 33 34 35 36 37 38 39 40 41 42 43 44 45 46 47 48 49 50
000
ASUS41 KCLE 241102
RWRCLE
OHIO REGIONAL WEATHER ROUNDUP
NATIONAL WEATHER SERVICE CLEVELAND, OH
700 AM EDT FRI MAR 24 2017

NOTE: "FAIR" INDICATES FEW OR NO CLOUDS BELOW 12,000 FEET WITH NO
SIGNIFICANT WEATHER AND/OR OBSTRUCTIONS TO VISIBILITY.

OHZ001>008-015>018-024>027-034-035-043-044-241200-
   NORTHWEST OHIO

CITY           SKY/WX    TMP DP  RH WIND       PRES   REMARKS
DEFIANCE       PTCLDY    50  38  63 S16G24    30.04S
FINDLAY        MOCLDY    52  39  61 S20       30.07R
TOLEDO EXPRESS CLOUDY    48  39  71 S12       30.03F
TOLEDO EXEC    CLOUDY    48  39  71 S12       30.05S
LIMA           MOCLDY    52  40  63 S15       30.09R
$$

OHZ009>014-019>023-028>033-038-089-241200-
   NORTHEAST OHIO

CITY           SKY/WX    TMP DP  RH WIND       PRES   REMARKS
CLE-HOPKINS    CLOUDY    50  33  52 S16       30.12R
CLE-LAKEFRONT  CLOUDY    53  35  50 S21G30    30.07R
CUY CO. ARPT   CLOUDY    52  36  54 S17G28    30.09
LORAIN-ELYRIA  CLOUDY    44  33  65 S14       30.10R
ASHTABULA      CLOUDY    42  36  79 S12       30.10F
AKRON-CANTON   CLOUDY    43  35  73 S16       30.15F
WOOSTER        CLOUDY    44  33  65 S12       30.16F
MANSFIELD      CLOUDY    51  37  58 S17       30.13S
YOUNGSTOWN     CLOUDY    41  37  86 SE7       30.13F
$$

OHZ042-051>053-060>062-070>072-077>081-241200-
  SOUTHWEST OHIO

CITY           SKY/WX    TMP DP  RH WIND       PRES   REMARKS
CINC-COVINGTON PTCLDY    52  41  66 S12       30.15R
CINC-LUNKEN    PTCLDY    50  41  71 S6        30.18R
HAMILTON       MOCLDY    54  41  61 S3        30.17R
DAYTON         CLOUDY    54  39  57 S21G28    30.14R
WRIGHT-PAT AFB MOCLDY    55  40  57 S15       30.15R
DAYTON GENERAL PTCLDY    53  40  61 S14       30.15R
WILMINGTON     MOCLDY    51  40  65 S10       30.17R
$$

OHZ036-037-039>041-045>050-054>059-063>069-073>076-082>088-241200-
  CENTRAL AND SOUTHEAST OHIO

CITY           SKY/WX    TMP DP  RH WIND       PRES   REMARKS
COLUMBUS       CLOUDY    52  33  48 S8        30.18R
OSU AIRPORT    CLOUDY    50  32  50 S9        30.17R
BOLTON FIELD   CLOUDY    45  32  60 S6        30.19R
RICKENBACK AFB CLOUDY    49  33  54 S8        30.18S
NEWARK         MOCLDY    49  32  52 S5        30.17S
MARION         CLOUDY    50  36  58 S16       30.14R
LANCASTER      CLOUDY    55  35  47 S8        30.19R
ZANESVILLE     CLOUDY    49  30  48 S8        30.20R
NEW PHILLY     NOT AVBL
$$



USA.gov is the U.S. government's official web portal to all federal, state and local government web resources and services.